TimePDT,TemperatureF,Dew PointF,Humidity,Sea Level PressureIn,VisibilityMPH,Wind Direction,Wind SpeedMPH,Gust SpeedMPH,PrecipitationIn,Events,Conditions,WindDirDegrees,DateUTC
12:53 AM,64.0,54.0,70,29.75,10.0,ENE,3.5,-,N/A,,Clear,60,2012-10-17 07:53:00
1:53 AM,66.0,50.0,56,29.75,10.0,SE,3.5,-,N/A,,Clear,130,2012-10-17 08:53:00
2:53 AM,64.9,48.0,54,29.75,10.0,East,4.6,-,N/A,,Clear,100,2012-10-17 09:53:00
3:53 AM,61.0,48.9,64,29.74,10.0,East,5.8,-,N/A,,Clear,90,2012-10-17 10:53:00
4:53 AM,61.0,48.0,62,29.74,10.0,SE,8.1,-,N/A,,Clear,130,2012-10-17 11:53:00
5:53 AM,63.0,46.0,54,29.74,10.0,SE,5.8,-,N/A,,Clear,130,2012-10-17 12:53:00
6:53 AM,66.0,41.0,40,29.74,10.0,SSE,8.1,-,N/A,,Clear,160,2012-10-17 13:53:00
7:53 AM,71.1,42.1,35,29.75,10.0,East,4.6,-,N/A,,Clear,100,2012-10-17 14:53:00
8:53 AM,81.0,37.9,21,29.76,-9999.0,North,-9999.0,-,N/A,,Clear,0,2012-10-17 15:53:00
9:26 AM,87.8,35.6,16,29.78,-9999.0,North,-9999.0,-,N/A,,Partly Cloudy,0,2012-10-17 16:26:00
9:53 AM,91.0,35.1,14,29.76,10.0,SE,19.6,-,N/A,,Clear,130,2012-10-17 16:53:00
10:53 AM,97.0,33.1,11,29.75,10.0,ESE,13.8,-,N/A,,Clear,120,2012-10-17 17:53:00
11:53 AM,97.0,28.0,9,29.74,10.0,East,11.5,18.4,N/A,,Clear,90,2012-10-17 18:53:00
12:53 PM,90.0,45.0,21,29.73,10.0,WNW,10.4,16.1,N/A,,Clear,300,2012-10-17 19:53:00
1:53 PM,89.1,48.9,25,29.72,10.0,WNW,6.9,-,N/A,,Clear,290,2012-10-17 20:53:00
2:53 PM,90.0,43.0,19,29.72,10.0,Variable,4.6,-,N/A,,Clear,0,2012-10-17 21:53:00
3:53 PM,90.0,45.0,21,29.72,10.0,Variable,5.8,-,N/A,,Clear,0,2012-10-17 22:53:00
4:53 PM,88.0,45.0,22,29.73,10.0,WNW,4.6,-,N/A,,Clear,300,2012-10-17 23:53:00
5:53 PM,86.0,45.0,24,29.74,10.0,West,3.5,-,N/A,,Clear,280,2012-10-18 00:53:00
6:53 PM,82.0,46.9,29,29.77,10.0,Calm,Calm,-,N/A,,Clear,0,2012-10-18 01:53:00
7:53 PM,82.9,41.0,23,29.79,10.0,Calm,Calm,-,N/A,,Clear,0,2012-10-18 02:53:00
8:53 PM,86.0,36.0,17,29.81,10.0,ESE,15.0,-,N/A,,Clear,120,2012-10-18 03:53:00
9:53 PM,84.9,37.9,19,29.81,10.0,SE,13.8,-,N/A,,Clear,140,2012-10-18 04:53:00
10:53 PM,81.0,42.1,25,29.83,10.0,East,9.2,-,N/A,,Clear,100,2012-10-18 05:53:00
11:53 PM,82.0,44.1,26,29.84,10.0,SSE,11.5,-,N/A,,Clear,150,2012-10-18 06:53:00